SCP
0 0 0 0 0 0 0 0 0 0 0 0 1 1 1 1 2 2 1 1 1 1 1 1 1 2 2 2 2 2 1 1 1 1 1 1 1 1 1 1 0 0 0 0
0 0 0 0 0 0 0 0 0 0 0 0 0 0 0 0 1 1 1 1 1 1 1 1 1 2 3 2 2 1 1 1 1 1 1 1 1 1 1 1 1 0 0 0
0 0 0 0 0 0 0 0 0 0 0 0 0 0 0 0 0 0 0 0 0 0 0 1 1 2 2 2 2 1 1 1 2 1 1 1 1 1 1 1 1 1 0 0
0 0 0 0 0 0 0 0 0 0 0 0 0 0 0 0 0 0 0 0 0 0 0 0 1 1 1 1 2 2 2 2 2 1 1 1 1 1 1 1 1 1 1 1
0 0 0 0 0 0 0 0 0 0 0 0 0 0 0 0 0 0 0 0 0 0 0 0 0 1 1 1 2 2 2 2 2 1 1 1 1 1 1 1 1 1 1 1
0 0 0 0 0 0 0 0 0 0 0 0 0 0 0 0 0 0 0 0 0 0 0 0 0 0 1 1 1 1 1 1 1 1 1 1 1 1 1 1 1 1 1 1
0 0 0 0 0 0 0 0 0 0 0 0 0 0 0 0 0 0 0 0 0 0 0 0 0 0 0 1 1 1 1 1 1 1 1 1 1 1 1 1 1 1 1 1
0 0 0 0 0 0 0 0 0 0 0 0 0 0 0 0 0 0 0 0 0 0 0 0 0 0 0 0 1 1 1 1 1 1 1 1 1 1 1 0 0 0 0 0
0 0 0 0 0 0 0 0 0 0 0 0 0 0 0 0 0 0 0 0 0 0 0 0 0 0 0 0 0 1 1 1 2 2 2 2 1 1 1 0 0 0 0 0
0 0 0 0 0 0 0 0 0 0 0 0 0 0 0 0 0 0 0 0 0 0 0 0 0 0 0 0 0 1 1 1 2 2 2 2 1 1 0 0 0 0 0 0
0 0 0 0 0 0 0 0 0 0 0 0 0 0 0 0 0 0 0 0 0 0 0 0 0 0 0 0 0 0 0 1 1 2 2 1 1 0 0 0 0 0 0 0
0 0 0 0 0 0 0 0 0 0 0 0 0 0 0 0 0 0 0 0 0 0 0 0 0 0 0 0 0 0 0 0 1 1 1 1 0 0 0 0 0 0 0 0
0 0 0 0 0 0 0 0 0 0 0 0 0 0 0 0 0 0 0 0 0 0 0 0 0 0 0 0 0 0 0 0 0 0 0 0 0 0 0 0 0 0 0 0
0 0 0 0 0 0 0 0 0 0 0 0 0 0 0 0 0 0 0 0 0 0 0 0 0 0 0 0 0 0 0 0 0 0 0 0 0 0 0 0 0 0 0 0
0 0 0 0 0 0 0 0 0 0 0 0 0 0 0 0 0 0 0 0 0 0 0 0 0 0 0 0 0 0 0 0 0 0 0 0 0 0 0 0 0 0 0 0
0 0 0 0 0 0 0 0 0 0 0 0 0 0 0 0 0 0 0 0 0 0 0 0 0 0 0 0 0 0 0 0 0 0 0 0 0 0 0 0 0 0 0 0
0 0 0 0 0 0 0 0 0 0 0 0 0 0 0 0 0 0 0 0 0 0 0 0 0 0 0 0 0 0 0 0 0 0 0 0 0 0 0 0 0 0 0 0
0 0 0 0 0 0 0 0 0 0 0 0 0 0 0 0 0 0 0 0 0 0 0 0 0 0 0 0 0 0 0 0 0 0 0 0 0 0 0 0 0 0 0 0
0 0 0 0 0 0 0 0 0 0 0 0 0 0 0 0 0 0 0 0 0 0 0 0 0 0 0 0 0 0 0 0 0 0 0 0 0 0 0 0 0 0 0 0
0 0 0 0 0 0 0 0 0 0 0 0 0 0 0 0 0 0 0 0 0 0 0 0 0 0 0 0 0 0 0 0 0 0 0 0 0 0 0 0 0 0 0 0
0 0 0 0 0 0 0 0 0 0 0 0 0 0 0 0 0 0 0 0 0 0 0 0 0 0 0 0 0 0 0 0 0 0 0 0 0 0 0 0 0 0 0 0
0 0 0 0 0 0 0 0 0 0 0 0 0 0 0 0 0 0 0 0 0 0 0 0 0 0 0 0 0 0 0 0 0 0 0 0 0 0 0 0 0 0 0 0
0 0 0 0 0 0 0 0 0 0 0 0 0 0 0 0 0 0 0 0 0 0 0 0 0 0 0 0 0 0 0 0 0 0 0 0 0 0 0 0 0 0 0 0
0 0 0 0 0 0 0 0 0 0 0 0 0 0 0 0 0 0 0 0 0 0 0 0 0 0 0 0 0 0 0 0 0 0 0 0 0 0 0 0 0 0 0 0
0 0 0 0 0 0 0 0 0 0 0 0 0 0 0 0 0 0 0 0 0 0 0 0 0 0 0 0 0 0 0 0 0 0 0 0 0 0 0 0 0 0 0 0
0 0 0 0 0 0 0 0 0 0 0 0 0 0 0 0 0 0 0 0 0 0 0 0 0 0 0 0 0 0 0 0 0 0 0 0 0 0 0 0 0 0 0 0
Wind_Speed
1 1 1 2 3 3 2 2 1 2 1 2 3 4 5 3 2 4 4 4 5 5 4 3 5 6 7 7 8 9 9 9 7 5 5 5 5 4 4 4 5 6 6 6
3 2 3 2 2 1 1 1 1 1 1 1 1 4 4 4 5 5 5 6 5 5 5 4 4 5 7 9 9 10 11 10 9 7 6 4 4 3 3 3 4 5 6 6
1 2 2 1 1 1 1 2 2 2 1 2 1 4 4 4 4 4 5 6 6 7 7 5 4 5 6 8 9 9 10 9 9 8 4 3 3 2 2 3 3 4 5 5
1 3 1 0 1 1 1 2 3 3 2 1 1 2 5 3 4 5 6 6 7 7 6 6 5 5 6 7 7 7 8 9 9 9 7 7 6 6 6 5 4 4 4 5
2 2 2 1 2 0 1 0 2 2 2 1 1 1 6 2 4 7 8 8 8 6 6 6 6 5 4 5 5 6 6 8 9 9 10 9 7 5 4 5 5 4 3 3
2 1 1 2 2 0 1 3 4 4 3 1 2 3 5 4 6 6 6 6 7 6 5 5 4 3 3 3 4 4 6 6 7 9 9 10 9 8 7 7 7 5 3 3
4 3 2 1 2 3 3 4 3 3 2 3 1 2 7 6 5 6 7 7 6 5 4 3 3 3 3 3 3 4 5 5 6 7 7 8 8 9 9 8 7 6 4 3
1 3 3 2 0 0 1 3 3 2 2 2 1 3 6 5 4 3 3 3 3 2 2 3 2 2 2 2 2 3 4 4 4 5 5 5 6 5 5 6 6 6 5 4
2 1 3 1 1 1 2 1 1 3 1 1 3 5 6 3 5 5 4 3 2 2 2 2 2 1 2 2 2 2 3 3 3 4 4 4 5 5 6 6 6 5 5 5
2 1 3 3 2 3 2 2 2 3 2 1 3 3 4 6 7 7 7 5 4 3 3 3 2 2 1 1 1 1 2 2 2 3 3 3 4 5 6 6 7 7 6 7
1 2 3 3 2 1 2 2 2 2 2 2 1 4 3 4 5 5 6 5 5 4 3 3 3 2 2 1 1 1 2 2 2 3 4 5 5 5 6 6 6 7 6 7
2 3 0 2 2 1 0 1 2 2 1 2 2 5 4 2 3 3 5 6 6 5 4 3 3 3 3 2 1 1 1 2 2 3 4 5 5 5 6 6 6 6 6 6
3 3 2 4 3 2 1 0 1 2 2 2 2 5 4 4 5 6 6 7 6 6 5 4 4 4 3 2 2 1 0 1 2 3 4 5 5 6 6 6 6 6 6 6
4 3 4 4 3 1 1 1 2 2 2 2 4 5 6 7 7 8 7 7 6 6 5 5 5 4 3 3 2 1 1 1 2 3 4 5 5 5 6 6 6 6 7 6
4 2 1 2 2 1 2 3 3 4 4 5 4 4 6 5 5 5 6 6 7 7 7 6 5 5 4 4 3 2 1 0 2 3 4 4 4 5 6 6 6 6 6 6
3 2 1 2 2 1 2 4 3 4 3 4 4 6 4 4 3 4 5 6 6 6 6 6 6 5 5 4 3 3 2 1 1 3 3 4 5 5 6 6 6 6 5 5
2 3 2 2 4 3 4 4 4 3 2 4 5 4 3 4 5 4 4 5 5 6 6 6 5 5 5 4 3 2 2 1 1 3 3 4 5 5 5 6 6 6 5 5
5 3 2 0 3 2 5 1 2 2 1 1 2 3 3 4 4 2 2 4 6 7 6 6 6 6 5 4 3 2 2 1 1 2 3 4 5 5 5 6 6 5 4 5
3 4 3 1 1 5 5 1 1 2 2 1 2 3 3 4 2 3 4 5 5 6 5 5 5 5 5 4 3 2 2 1 1 2 3 4 5 6 6 6 6 5 5 4
3 3 3 2 1 5 4 1 1 1 2 1 0 2 3 3 2 3 6 7 7 6 5 5 5 5 5 4 2 2 2 1 2 3 3 3 4 6 7 7 5 4 4 5
3 2 3 3 3 7 4 2 1 2 3 0 1 1 2 1 3 5 7 7 6 6 6 6 5 5 5 4 2 2 3 3 3 2 2 2 4 5 5 5 4 5 5 5
7 5 5 5 5 8 2 3 4 4 0 1 1 1 2 3 5 5 6 7 7 7 7 6 6 6 5 4 3 3 4 4 2 1 2 2 3 3 4 5 5 5 6 6
6 7 6 8 7 2 2 3 2 2 2 1 0 2 3 4 5 6 6 6 6 7 7 6 6 6 6 5 3 4 5 3 2 1 2 2 2 3 4 5 6 5 5 5
4 3 3 4 5 3 3 2 1 2 1 0 0 1 2 3 5 6 6 6 7 7 7 6 6 6 6 5 5 4 4 3 2 2 2 2 2 3 3 4 5 5 6 6
6 6 4 4 3 1 3 4 3 2 1 0 1 1 2 3 5 5 6 6 7 7 6 6 6 6 6 6 5 5 4 3 2 2 2 2 2 3 4 4 5 6 6 7
7 8 9 8 6 6 5 5 4 3 2 1 1 2 3 3 4 5 5 5 6 6 6 6 6 6 6 6 6 5 4 3 2 2 2 2 2 2 3 3 3 6 6 9
Wind_Direction
342 74 229 223 215 223 174 156 222 267 269 141 192 246 268 276 254 252 262 258 254 256 253 221 203 190 186 189 195 199 202 205 194 187 188 185 190 183 182 185 184 181 178 174
28 312 258 232 211 212 197 150 248 334 3 109 197 272 273 252 239 234 242 254 256 257 258 237 216 202 196 193 195 199 203 204 200 199 193 185 174 173 175 177 178 179 175 172
137 287 287 186 161 188 235 203 192 154 63 28 47 315 285 265 249 248 240 242 243 241 248 244 225 219 208 204 201 201 201 202 202 198 177 141 130 122 158 179 183 181 175 171
335 313 343 87 305 186 272 232 176 151 116 16 117 295 288 263 279 266 256 247 246 246 241 241 233 223 210 211 206 205 197 193 193 189 188 183 187 189 191 182 174 160 163 162
336 353 7 345 304 197 201 343 107 105 106 62 91 167 287 300 263 258 253 249 246 243 237 237 236 234 221 204 198 201 199 194 191 190 192 193 196 191 165 152 154 150 144 144
288 300 286 286 313 327 126 64 57 47 64 350 223 175 278 246 231 247 252 257 257 255 249 248 244 236 225 197 186 186 195 198 191 189 191 193 190 178 166 167 164 156 141 126
358 342 329 315 4 17 65 81 52 26 33 262 257 186 255 263 255 246 255 263 264 264 258 261 254 240 232 209 190 181 190 196 189 187 188 193 191 182 179 173 167 158 152 148
56 334 327 346 28 95 56 108 141 165 196 293 317 235 262 286 299 291 274 270 283 298 295 279 268 250 249 233 198 187 193 191 179 183 188 184 179 174 171 165 159 161 153 144
146 296 326 332 330 108 91 80 141 116 79 346 291 296 307 345 9 5 359 3 335 310 309 304 309 294 263 244 215 205 196 179 171 171 164 163 164 159 156 149 142 139 133 134
144 104 332 327 33 23 115 135 86 93 107 339 315 306 300 332 345 350 355 352 334 333 337 334 330 316 298 266 214 165 174 172 165 152 150 144 143 139 136 134 135 135 134 132
125 114 347 16 31 356 43 67 86 96 124 146 296 295 290 297 317 334 341 343 349 348 340 337 335 334 348 28 87 120 147 148 147 137 132 131 128 126 126 129 134 136 136 138
140 115 37 296 288 294 123 137 137 137 200 146 159 278 315 337 341 359 360 358 359 358 351 349 356 6 13 14 22 58 135 148 150 139 133 132 130 127 128 130 132 132 135 136
130 108 62 358 351 7 22 182 141 122 119 152 173 271 327 3 4 5 2 358 357 360 360 2 9 10 2 359 1 8 24 139 130 131 131 131 134 137 136 134 132 131 129 127
107 103 151 184 233 222 274 267 176 141 160 214 227 264 315 342 346 346 350 352 355 359 2 4 3 1 1 4 2 359 351 148 147 141 143 149 152 149 143 138 137 136 135 135
92 114 184 248 265 223 247 256 222 203 200 206 242 261 290 312 320 327 339 353 3 4 5 5 360 355 357 1 359 355 337 244 159 154 159 165 152 140 134 135 136 134 135 139
76 115 65 338 346 255 261 261 235 225 217 231 259 277 285 299 324 337 348 360 4 358 354 355 354 348 343 339 336 332 320 294 165 166 173 157 147 145 145 144 140 136 136 137
89 112 96 304 322 2 296 259 210 200 210 202 225 250 310 322 328 328 336 348 348 343 343 345 340 329 319 312 305 302 294 272 182 180 174 165 159 156 157 150 144 147 147 143
126 114 118 359 20 263 256 291 177 183 247 238 261 297 308 296 295 306 341 347 341 339 336 333 330 324 318 309 306 308 303 250 202 193 184 175 168 165 159 155 158 156 151 156
131 131 121 116 288 284 291 284 173 192 269 276 271 312 333 336 351 343 3 354 337 327 318 315 314 312 314 315 313 323 319 295 222 220 210 194 179 172 170 174 173 164 158 167
75 99 119 140 209 253 254 266 282 142 272 322 11 339 345 8 356 311 342 340 331 330 329 326 325 328 324 319 322 325 305 281 254 244 231 208 189 183 185 185 176 167 166 175
129 121 158 179 235 264 254 272 112 167 252 350 61 353 352 324 259 296 321 327 327 326 327 329 330 331 322 317 320 312 302 280 271 259 229 212 201 194 187 178 171 165 164 162
172 170 186 173 209 252 220 135 173 209 157 100 22 350 327 307 304 312 321 325 330 331 331 330 329 327 324 324 321 309 299 293 281 245 225 219 203 190 175 169 169 166 166 171
195 189 185 194 212 224 175 182 177 145 153 198 298 331 320 308 308 315 320 323 326 327 327 327 322 321 323 326 318 300 299 305 294 269 246 227 199 186 174 173 174 172 177 184
237 177 173 233 247 222 204 182 155 139 160 184 308 305 302 294 304 313 316 320 323 323 324 326 324 322 323 327 323 305 302 304 292 271 252 217 198 194 186 184 183 185 189 192
206 171 187 236 246 213 222 202 186 165 149 101 325 292 295 299 304 309 313 316 319 320 323 325 324 322 323 327 328 326 322 315 294 270 245 223 211 204 201 201 202 202 205 200
193 179 179 211 204 186 213 192 172 170 195 229 286 304 307 299 301 310 310 311 316 322 327 330 329 325 324 327 328 330 328 317 296 274 245 227 221 215 209 207 220 223 223 224